Wind from 253 at 0 knots gusting 5

Air temperature 27.8° C
Dewpoint 8.1° C

Last reported at 2014-Apr-17 14:36 UTC.
Time now 2014-Apr-17 15:39 UTC

Location: N 40°23' W 003°38'.
View on Google Maps.

See reports from other nearby stations

Tides Stations Pressure Air Temp Water Temp Dewpoint Dewpoint depression Visibility Wind Speed Wind Dir Waves Ship positions

  
sailing weather and tide predictions

DW9106 Madrid ES weather

date/time (UTC)wind fromknots sea level pressurealtimeterstation pressurevisibilityair tempwater tempwave heightnotes
2014-Apr-17 14:36 253 0 gusting 5 27.8
2014-Apr-17 14:21 040 0 gusting 2 27.2
2014-Apr-17 14:06 039 2 gusting 5 27.8
2014-Apr-17 13:51 208 0 gusting 7 27.8
2014-Apr-17 13:36 269 3 gusting 9 27.2
2014-Apr-17 13:21 049 26.7
2014-Apr-17 13:05 057 27.2
2014-Apr-17 12:50 218 0 gusting 6 26.7
2014-Apr-17 12:35 048 2 gusting 6 26.7
2014-Apr-17 12:20 171 1 gusting 4 26.1
2014-Apr-17 12:05 234 3 gusting 6 26.1
2014-Apr-17 11:50 037 0 gusting 2 26.7
2014-Apr-17 11:35 273 1 gusting 5 25.0
2014-Apr-17 11:20 030 2 gusting 6 24.4
2014-Apr-17 11:05 036 1 gusting 7 24.4
2014-Apr-17 10:50 121 24.4
2014-Apr-17 10:35 059 1 gusting 6 23.9
2014-Apr-17 10:20 042 1 gusting 5 23.3
2014-Apr-17 10:05 074 22.2
2014-Apr-17 09:50 046 1 gusting 3 22.2
2014-Apr-17 09:35 065 1 gusting 6 21.1
2014-Apr-17 09:20 057 2 gusting 6 20.6
2014-Apr-17 09:05 095 2 gusting 6 20.0
2014-Apr-17 08:49 090 3 gusting 6 19.4
2014-Apr-17 08:34 063 2 gusting 6 18.3
2014-Apr-17 08:19 061 2 gusting 6 17.8
2014-Apr-17 08:04 126 0 gusting 6 17.8
2014-Apr-17 07:49 118 0 gusting 3 17.8
2014-Apr-17 07:34 036 17.2
2014-Apr-17 07:19 068 17.8
2014-Apr-17 07:04 057 17.2
2014-Apr-17 06:49 057 16.1
2014-Apr-17 06:34 323 15.0
2014-Apr-17 06:19 323 14.4
2014-Apr-17 06:04 323 13.3
2014-Apr-17 05:49 323 13.3
2014-Apr-17 05:34 323 13.3
2014-Apr-17 05:19 323 13.9
2014-Apr-17 05:04 306 13.9
2014-Apr-17 04:48 306 14.4
2014-Apr-17 04:33 306 14.4
2014-Apr-17 04:18 304 14.4
2014-Apr-17 04:03 304 15.0
2014-Apr-17 03:48 063 15.0
2014-Apr-17 03:33 063 15.0
2014-Apr-17 03:18 063 15.6
2014-Apr-17 03:03 064 15.6
2014-Apr-17 02:48 064 16.1
2014-Apr-17 02:33 064 16.1
2014-Apr-17 02:18 064 16.1
2014-Apr-17 02:03 064 15.6
2014-Apr-17 01:48 064 16.1
2014-Apr-17 01:33 064 16.1
2014-Apr-17 01:18 067 16.1
2014-Apr-17 01:03 067 16.7
2014-Apr-17 00:48 067 16.7
2014-Apr-17 00:33 067 17.2
2014-Apr-17 00:18 067 17.2
2014-Apr-17 00:03 069 17.8
2014-Apr-16 23:48 069 18.3
2014-Apr-16 23:18 069 19.4
2014-Apr-16 23:03 049 1 gusting 6 19.4
2014-Apr-16 22:48 049 0 gusting 2 19.4
2014-Apr-16 22:33 278 20.0
2014-Apr-16 22:18 278 20.0
2014-Apr-16 22:03 310 20.0
2014-Apr-16 21:48 286 20.6
2014-Apr-16 21:33 291 21.1
2014-Apr-16 21:03 268 0 gusting 4 21.7
2014-Apr-16 20:48 273 0 gusting 5 21.7
2014-Apr-16 20:33 254 0 gusting 2 21.7
2014-Apr-16 20:18 224 22.2
2014-Apr-16 20:03 270 22.2
2014-Apr-16 19:48 263 0 gusting 2 22.8
2014-Apr-16 19:33 254 1 gusting 5 22.8
2014-Apr-16 19:18 250 0 gusting 3 22.8
2014-Apr-16 19:03 262 23.3
2014-Apr-16 18:48 259 0 gusting 3 23.9
2014-Apr-16 18:33 244 0 gusting 3 24.4
2014-Apr-16 18:18 126 0 gusting 5 24.4
2014-Apr-16 18:03 276 1 gusting 5 24.4
2014-Apr-16 17:48 164 1 gusting 4 25.0
2014-Apr-16 17:33 233 1 gusting 5 26.1
2014-Apr-16 17:18 331 1 gusting 6 26.1
2014-Apr-16 17:03 274 1 gusting 5 26.7
2014-Apr-16 16:48 214 2 gusting 9 26.1
2014-Apr-16 16:33 199 1 gusting 4 26.7
2014-Apr-16 16:18 263 0 gusting 9 26.1
2014-Apr-16 16:03 142 26.7
2014-Apr-16 15:48 269 3 gusting 9 26.7
2014-Apr-16 15:33 315 1 gusting 5 26.7
2014-Apr-16 15:18 282 2 gusting 8 26.7
2014-Apr-16 15:02 229 2 gusting 7 26.1
2014-Apr-16 14:47 132 1 gusting 5 26.7
2014-Apr-16 14:32 172 2 gusting 6 26.7
2014-Apr-16 14:17 242 0 gusting 6 26.1
2014-Apr-16 14:02 252 3 gusting 7 26.1
2014-Apr-16 13:47 028 0 gusting 10 25.6
2014-Apr-16 13:32 284 2 gusting 6 25.6
2014-Apr-16 13:17 083 1 gusting 6 25.0
2014-Apr-16 13:02 264 2 gusting 6 25.0
2014-Apr-16 12:47 076 1 gusting 9 25.0
2014-Apr-16 12:32 206 2 gusting 6 25.0
2014-Apr-16 12:17 328 0 gusting 6 25.0
2014-Apr-16 12:02 137 23.9
2014-Apr-16 11:47 196 0 gusting 6 23.3
2014-Apr-16 11:32 190 0 gusting 4 23.3
2014-Apr-16 11:17 296 1 gusting 7 23.3
2014-Apr-16 11:02 244 1 gusting 5 22.8
2014-Apr-16 10:47 200 22.8
2014-Apr-16 10:32 109 1 gusting 4 22.8
2014-Apr-16 10:17 248 0 gusting 4 22.2
2014-Apr-16 10:02 201 0 gusting 3 21.7
2014-Apr-16 09:47 265 21.1
2014-Apr-16 09:32 190 1 gusting 3 20.0
2014-Apr-16 09:17 123 19.4
2014-Apr-16 09:01 091 0 gusting 3 18.9
2014-Apr-16 08:46 038 0 gusting 2 18.3
2014-Apr-16 08:31 059 0 gusting 3 17.2
2014-Apr-16 08:16 059 1 gusting 4 16.7
2014-Apr-16 08:01 080 1 gusting 6 16.1
2014-Apr-16 07:46 059 0 gusting 2 15.6
2014-Apr-16 07:31 038 0 gusting 3 15.6
2014-Apr-16 07:16 067 14.4
2014-Apr-16 07:01 044 1 gusting 4 13.9
2014-Apr-16 06:46 064 1 gusting 4 13.3
2014-Apr-16 06:31 027 13.3
2014-Apr-16 06:16 045 12.8
2014-Apr-16 06:01 047 12.2
2014-Apr-16 05:46 066 11.7
2014-Apr-16 05:30 260 12.2
2014-Apr-16 05:15 260 12.8
2014-Apr-16 05:00 260 12.8
2014-Apr-16 04:45 259 0 gusting 2 12.8
2014-Apr-16 04:30 024 12.8
2014-Apr-16 04:15 024 12.8
2014-Apr-16 04:00 024 12.8
2014-Apr-16 03:45 055 12.8
2014-Apr-16 03:30 055 12.8
2014-Apr-16 03:00 088 13.3
2014-Apr-16 02:45 088 13.3
2014-Apr-16 02:30 088 13.3
2014-Apr-16 02:15 088 13.3
2014-Apr-16 02:00 088 13.3
2014-Apr-16 01:45 088 13.9
2014-Apr-16 01:30 088 14.4
2014-Apr-16 01:15 088 13.9
2014-Apr-16 00:45 092 13.9
2014-Apr-16 00:30 092 14.4
2014-Apr-16 00:15 092 15.0
2014-Apr-16 00:00 092 15.6
2014-Apr-15 23:45 092 0 gusting 2 15.6
2014-Apr-15 23:30 019 15.6
2014-Apr-15 23:15 019 16.1
2014-Apr-15 22:45 281 16.7
2014-Apr-15 22:30 281 16.7
2014-Apr-15 22:15 281 17.2
2014-Apr-15 22:00 281 17.2
2014-Apr-15 21:45 252 17.2
2014-Apr-15 21:30 107 17.2
2014-Apr-15 21:15 207 17.8
2014-Apr-15 21:00 207 17.8
2014-Apr-15 20:45 207 18.3
2014-Apr-15 20:30 190 18.3
2014-Apr-15 20:15 176 1 gusting 6 18.3
2014-Apr-15 20:00 169 0 gusting 5 18.3
2014-Apr-15 19:45 130 0 gusting 2 17.8
2014-Apr-15 19:30 061 0 gusting 3 18.3
2014-Apr-15 19:15 041 1 gusting 9 18.3
2014-Apr-15 19:00 190 0 gusting 3 18.9
2014-Apr-15 18:45 238 19.4
2014-Apr-15 18:30 233 19.4
2014-Apr-15 18:15 180 0 gusting 1 19.4
2014-Apr-15 18:00 146 0 gusting 9 18.3
2014-Apr-15 17:45 298 1 gusting 6 17.2
2014-Apr-15 17:30 344 1 gusting 6 17.2
2014-Apr-15 17:15 253 4 gusting 9 19.4
2014-Apr-15 17:00 257 6 gusting 10 21.1
2014-Apr-15 16:45 024 2 gusting 11 21.7
2014-Apr-15 16:30 187 2 gusting 14 24.4
2014-Apr-15 16:15 071 24.4
2014-Apr-15 15:59 038 1 gusting 4 25.0
2014-Apr-15 15:44 062 1 gusting 6 26.1
2014-Apr-15 15:29 227 0 gusting 3 26.1
2014-Apr-15 15:14 173 1 gusting 4 26.1